Location: Bauru
(22.3170°S, 49.0670°W)
Time: 15:02:24
(UTC-03:00)

Hubble Space Telescope - Visible Passes

Search period start: 18 February 2019 00:00
Search period end: 28 February 2019 00:00
Orbit: 537 x 540 km, 28.5° (Epoch: 17 February)

Date Brightness Start Highest point End Pass type
(mag) Time Alt. Az. Time Alt. Az. Time Alt. Az.
18 Feb 2.0 04:10:32 35° S 04:10:32 35° S 04:14:15 10° ESE visible
19 Feb 2.3 04:00:54 33° SE 04:00:54 33° SE 04:03:56 10° ESE visible
19 Feb 0.8 05:37:18 10° WSW 05:41:29 83° SSE 05:45:37 10° ENE visible
20 Feb 2.8 03:51:22 27° ESE 03:51:22 27° ESE 03:53:37 10° E visible
20 Feb 0.7 05:26:52 10° WSW 05:31:01 78° NNW 05:35:10 10° ENE visible
21 Feb 3.3 03:41:57 19° ESE 03:41:57 19° ESE 03:43:17 10° E visible
21 Feb 0.8 05:17:21 16° W 05:20:33 60° NNW 05:24:38 10° ENE visible
22 Feb 3.9 03:32:40 12° E 03:32:40 12° E 03:32:58 10° E visible
22 Feb 1.1 05:08:03 25° W 05:10:05 46° NNW 05:14:03 10° NE visible
23 Feb 1.5 04:58:52 32° NW 04:59:36 35° NNW 05:03:22 10° NE visible
23 Feb 2.7 20:19:07 10° NNW 20:20:40 18° N 20:20:40 18° N visible
24 Feb 2.1 04:49:46 25° N 04:49:46 25° N 04:52:34 10° NNE visible
24 Feb 1.7 20:08:17 10° NW 20:11:32 31° NNE 20:11:32 31° NNE visible
25 Feb 3.0 04:40:44 14° N 04:40:44 14° N 04:41:37 10° NNE visible
25 Feb 1.2 19:57:35 10° NW 20:01:31 42° NNE 20:02:17 38° NE visible
26 Feb 0.9 19:46:57 10° NW 19:51:01 56° NNE 19:52:55 29° E visible
26 Feb 4.0 21:28:15 10° W 21:28:17 10° W 21:28:17 10° W visible
27 Feb 0.7 19:36:25 10° WNW 19:40:33 73° NNE 19:43:25 19° ESE visible
27 Feb 3.7 21:17:55 10° W 21:18:48 15° WSW 21:18:48 15° WSW visible
